Time,TemperatureF,DewpointF,PressureIn,WindDirection,WindDirectionDegrees,WindSpeedMPH,WindSpeedGustMPH,Humidity,HourlyPrecipIn,Conditions,Clouds,dailyrainin,SoftwareType,DateUTC
2013-10-23 00:14:00,51.0,44.0,29.80,WNW,298,0.0,0.0,78,0.00,,,0.00,,2013-10-23 04:14:00,
2013-10-23 00:24:00,51.0,45.0,29.80,NW,304,0.0,0.0,79,0.00,,,0.00,,2013-10-23 04:24:00,
2013-10-23 00:45:00,51.0,45.0,29.79,East,98,0.0,0.0,80,0.00,,,0.00,,2013-10-23 04:45:00,
2013-10-23 00:54:00,51.0,45.0,29.79,NW,324,0.0,0.0,81,0.00,,,0.00,,2013-10-23 04:54:00,
2013-10-23 01:13:00,50.0,45.0,29.79,NW,324,0.0,0.0,82,0.00,,,0.00,,2013-10-23 05:13:00,
2013-10-23 01:23:00,50.0,45.0,29.78,NW,324,0.0,0.0,82,0.00,,,0.00,,2013-10-23 05:23:00,
2013-10-23 01:34:00,50.0,45.0,29.78,NW,324,0.0,0.0,82,0.00,,,0.00,,2013-10-23 05:34:00,
2013-10-23 01:52:00,50.0,45.0,29.78,ENE,72,0.0,0.0,82,0.00,,,0.00,,2013-10-23 05:52:00,
2013-10-23 02:02:00,50.0,45.0,29.78,ENE,72,0.0,0.0,82,0.00,,,0.00,,2013-10-23 06:02:00,
2013-10-23 02:22:00,48.0,44.0,29.78,ENE,71,0.0,0.0,85,0.00,,,0.00,,2013-10-23 06:22:00,
2013-10-23 02:32:00,48.0,44.0,29.78,ENE,71,0.0,0.0,85,0.00,,,0.00,,2013-10-23 06:32:00,
2013-10-23 02:42:00,48.0,44.0,29.78,ENE,71,0.0,0.0,85,0.00,,,0.00,,2013-10-23 06:42:00,
2013-10-23 02:52:00,49.0,44.0,29.78,ESE,116,0.0,3.0,83,0.00,,,0.00,,2013-10-23 06:52:00,
2013-10-23 03:01:00,49.0,44.0,29.78,ESE,116,0.0,3.0,83,0.00,,,0.00,,2013-10-23 07:01:00,
2013-10-23 03:12:00,49.0,44.0,29.78,ESE,116,0.0,3.0,83,0.00,,,0.00,,2013-10-23 07:12:00,
2013-10-23 03:22:00,49.0,44.0,29.78,ESE,116,0.0,3.0,83,0.00,,,0.00,,2013-10-23 07:22:00,
2013-10-23 03:42:00,48.0,42.0,29.78,SW,220,0.0,0.0,80,0.00,,,0.00,,2013-10-23 07:42:00,
2013-10-23 03:52:00,48.0,42.0,29.78,SW,220,0.0,0.0,80,0.00,,,0.00,,2013-10-23 07:52:00,
2013-10-23 04:12:00,48.0,43.0,29.77,South,178,0.0,0.0,82,0.00,,,0.00,,2013-10-23 08:12:00,
2013-10-23 04:22:00,48.0,42.0,29.76,ESE,107,0.0,3.0,80,0.00,,,0.00,,2013-10-23 08:22:00,
2013-10-23 04:52:00,47.0,41.0,29.75,ESE,104,0.0,3.0,81,0.00,,,0.00,,2013-10-23 08:52:00,
2013-10-23 05:12:00,47.0,41.0,29.75,SE,138,0.0,0.0,78,0.00,,,0.00,,2013-10-23 09:12:00,
2013-10-23 05:22:00,47.0,41.0,29.76,SW,221,0.0,1.0,79,0.00,,,0.00,,2013-10-23 09:22:00,
2013-10-23 05:33:00,47.0,41.0,29.76,SW,221,0.0,1.0,79,0.00,,,0.00,,2013-10-23 09:33:00,
2013-10-23 05:43:00,47.0,41.0,29.76,SW,221,0.0,1.0,79,0.00,,,0.00,,2013-10-23 09:43:00,
2013-10-23 05:53:00,47.0,41.0,29.75,WSW,254,0.0,0.0,79,0.00,,,0.00,,2013-10-23 09:53:00,
2013-10-23 06:23:00,47.0,41.0,29.75,SE,140,0.0,0.0,78,0.00,,,0.00,,2013-10-23 10:23:00,
2013-10-23 06:53:00,46.0,40.0,29.75,ESE,111,0.0,0.0,80,0.00,,,0.00,,2013-10-23 10:53:00,
2013-10-23 07:12:00,46.0,41.0,29.76,ESE,113,0.0,0.0,81,0.00,,,0.00,,2013-10-23 11:12:00,
2013-10-23 07:22:00,46.0,41.0,29.76,ESE,113,0.0,0.0,81,0.00,,,0.00,,2013-10-23 11:22:00,
2013-10-23 07:42:00,46.0,41.0,29.76,ENE,75,0.0,0.0,82,0.00,,,0.00,,2013-10-23 11:42:00,
2013-10-23 07:52:00,46.0,41.0,29.76,SE,131,0.0,0.0,82,0.00,,,0.00,,2013-10-23 11:52:00,
2013-10-23 08:12:00,46.0,40.0,29.77,ESE,114,0.0,0.0,79,0.00,,,0.00,,2013-10-23 12:12:00,
2013-10-23 08:22:00,46.0,40.0,29.77,ESE,113,0.0,0.0,79,0.00,,,0.00,,2013-10-23 12:22:00,
2013-10-23 08:42:00,46.0,40.0,29.77,East,101,0.0,0.0,80,0.00,,,0.00,,2013-10-23 12:42:00,
2013-10-23 08:52:00,47.0,41.0,29.77,WSW,246,0.0,2.0,78,0.00,,,0.00,,2013-10-23 12:52:00,
2013-10-23 09:12:00,48.0,40.0,29.78,NE,44,0.0,2.0,75,0.00,,,0.00,,2013-10-23 13:12:00,
2013-10-23 09:22:00,48.0,39.0,29.78,SE,127,0.0,5.0,71,0.00,,,0.00,,2013-10-23 13:22:00,
2013-10-23 09:42:00,49.0,40.0,29.79,South,178,0.0,4.0,71,0.00,,,0.00,,2013-10-23 13:42:00,
2013-10-23 09:52:00,48.0,39.0,29.79,SE,128,0.0,4.0,72,0.00,,,0.00,,2013-10-23 13:52:00,
2013-10-23 10:11:00,49.0,40.0,29.79,SW,236,0.0,2.0,71,0.00,,,0.00,,2013-10-23 14:11:00,
2013-10-23 10:22:00,49.0,40.0,29.79,SW,236,0.0,2.0,71,0.00,,,0.00,,2013-10-23 14:22:00,
2013-10-23 10:42:00,50.0,38.0,29.79,SE,124,2.0,6.0,64,0.00,,,0.00,,2013-10-23 14:42:00,
2013-10-23 10:52:00,50.0,38.0,29.79,SE,124,2.0,6.0,64,0.00,,,0.00,,2013-10-23 14:52:00,
2013-10-23 11:11:00,50.0,37.0,29.81,ESE,116,3.0,8.0,61,0.00,,,0.00,,2013-10-23 15:11:00,
2013-10-23 11:22:00,50.0,36.0,29.81,SE,139,2.0,10.0,59,0.00,,,0.00,,2013-10-23 15:22:00,
2013-10-23 11:43:00,50.0,36.0,29.81,ESE,120,2.0,9.0,58,0.00,,,0.00,,2013-10-23 15:43:00,
2013-10-23 11:53:00,50.0,37.0,29.81,South,178,8.0,10.0,61,0.00,,,0.00,,2013-10-23 15:53:00,
2013-10-23 12:23:00,51.0,38.0,29.83,SE,135,0.0,6.0,61,0.00,,,0.00,,2013-10-23 16:23:00,
2013-10-23 12:53:00,50.0,37.0,29.83,ESE,104,3.0,4.0,60,0.00,,,0.00,,2013-10-23 16:53:00,
2013-10-23 13:12:00,49.0,37.0,29.85,SSE,153,0.0,3.0,62,0.00,,,0.00,,2013-10-23 17:12:00,
2013-10-23 13:23:00,47.0,37.0,29.85,SE,131,0.0,8.0,68,0.00,,,0.00,,2013-10-23 17:23:00,
2013-10-23 13:44:00,47.0,35.0,29.85,WNW,299,1.0,6.0,64,0.00,,,0.00,,2013-10-23 17:44:00,
2013-10-23 13:52:00,49.0,37.0,29.85,South,182,3.0,6.0,64,0.00,,,0.00,,2013-10-23 17:52:00,
2013-10-23 14:12:00,51.0,38.0,29.85,ESE,105,3.0,3.0,62,0.00,,,0.00,,2013-10-23 18:12:00,
2013-10-23 14:22:00,51.0,38.0,29.85,ESE,105,3.0,3.0,62,0.00,,,0.00,,2013-10-23 18:22:00,
2013-10-23 14:42:00,47.0,36.0,29.86,South,185,0.0,4.0,65,0.00,,,0.00,,2013-10-23 18:42:00,
2013-10-23 14:52:00,47.0,36.0,29.86,South,185,0.0,4.0,65,0.00,,,0.00,,2013-10-23 18:52:00,
2013-10-23 15:12:00,47.0,37.0,29.86,NNW,335,0.0,1.0,69,0.00,,,0.00,,2013-10-23 19:12:00,
2013-10-23 15:22:00,47.0,38.0,29.86,WSW,254,2.0,2.0,70,0.00,,,0.00,,2013-10-23 19:22:00,
2013-10-23 15:42:00,47.0,37.0,29.87,South,187,0.0,4.0,68,0.00,,,0.00,,2013-10-23 19:42:00,
2013-10-23 15:53:00,47.0,37.0,29.87,South,187,0.0,4.0,68,0.00,,,0.00,,2013-10-23 19:53:00,
2013-10-23 16:11:00,47.0,35.0,29.88,WSW,249,0.0,5.0,63,0.00,,,0.00,,2013-10-23 20:11:00,
2013-10-23 16:22:00,47.0,35.0,29.88,WSW,249,0.0,5.0,63,0.00,,,0.00,,2013-10-23 20:22:00,
2013-10-23 16:42:00,46.0,35.0,29.89,SE,134,0.0,6.0,65,0.00,,,0.00,,2013-10-23 20:42:00,
2013-10-23 16:52:00,46.0,35.0,29.89,SE,134,0.0,6.0,65,0.00,,,0.00,,2013-10-23 20:52:00,
2013-10-23 17:12:00,44.0,31.0,29.91,SSE,150,1.0,11.0,61,0.00,,,0.00,,2013-10-23 21:12:00,
2013-10-23 17:22:00,44.0,31.0,29.91,SSE,150,1.0,11.0,61,0.00,,,0.00,,2013-10-23 21:22:00,
2013-10-23 17:43:00,43.0,33.0,29.92,SE,141,0.0,6.0,68,0.00,,,0.00,,2013-10-23 21:43:00,
2013-10-23 17:54:00,43.0,32.0,29.92,SE,128,0.0,3.0,64,0.00,,,0.00,,2013-10-23 21:54:00,
2013-10-23 18:13:00,42.0,32.0,29.92,SW,223,0.0,4.0,68,0.00,,,0.00,,2013-10-23 22:13:00,
2013-10-23 18:24:00,41.0,31.0,29.93,SE,140,0.0,4.0,68,0.00,,,0.00,,2013-10-23 22:24:00,
2013-10-23 18:43:00,40.0,31.0,29.94,SSE,158,0.0,6.0,70,0.00,,,0.00,,2013-10-23 22:43:00,
2013-10-23 18:54:00,40.0,31.0,29.94,SSE,158,0.0,6.0,70,0.00,,,0.00,,2013-10-23 22:54:00,
2013-10-23 19:03:00,40.0,31.0,29.94,SSE,158,0.0,6.0,70,0.00,,,0.00,,2013-10-23 23:03:00,
2013-10-23 19:12:00,40.0,31.0,29.94,SSE,158,0.0,6.0,70,0.00,,,0.00,,2013-10-23 23:12:00,
2013-10-23 19:23:00,39.0,31.0,29.96,East,88,0.0,0.0,72,0.00,,,0.00,,2013-10-23 23:23:00,
2013-10-23 19:42:00,38.0,30.0,29.97,SE,134,0.0,1.0,74,0.00,,,0.00,,2013-10-23 23:42:00,
2013-10-23 19:52:00,38.0,30.0,29.97,ESE,123,0.0,0.0,74,0.00,,,0.00,,2013-10-23 23:52:00,
2013-10-23 20:02:00,38.0,30.0,29.97,ESE,123,0.0,0.0,74,0.00,,,0.00,,2013-10-24 00:02:00,
2013-10-23 20:12:00,38.0,30.0,29.97,ESE,123,0.0,0.0,74,0.00,,,0.00,,2013-10-24 00:12:00,
2013-10-23 20:22:00,37.0,30.0,29.98,ENE,74,0.0,0.0,77,0.00,,,0.00,,2013-10-24 00:22:00,
2013-10-23 20:52:00,37.0,30.0,29.99,WNW,298,0.0,0.0,77,0.00,,,0.00,,2013-10-24 00:52:00,
2013-10-23 21:11:00,37.0,30.0,29.99,WSW,248,0.0,0.0,77,0.00,,,0.00,,2013-10-24 01:11:00,
2013-10-23 21:22:00,37.0,30.0,30.00,SE,142,0.0,3.0,76,0.00,,,0.00,,2013-10-24 01:22:00,
2013-10-23 21:32:00,37.0,30.0,30.00,SE,142,0.0,3.0,76,0.00,,,0.00,,2013-10-24 01:32:00,
2013-10-23 21:42:00,37.0,30.0,30.00,SE,142,0.0,3.0,76,0.00,,,0.00,,2013-10-24 01:42:00,
2013-10-23 21:52:00,37.0,30.0,30.01,SSW,192,0.0,3.0,75,0.00,,,0.00,,2013-10-24 01:52:00,
2013-10-23 22:12:00,36.0,29.0,30.02,WSW,254,0.0,2.0,77,0.00,,,0.00,,2013-10-24 02:12:00,
2013-10-23 22:22:00,36.0,29.0,30.01,ESE,103,1.0,3.0,77,0.00,,,0.00,,2013-10-24 02:22:00,
2013-10-23 22:52:00,36.0,29.0,30.02,NNE,30,0.0,0.0,77,0.00,,,0.00,,2013-10-24 02:52:00,
2013-10-23 23:12:00,35.0,29.0,30.03,WNW,282,0.0,0.0,78,0.00,,,0.00,,2013-10-24 03:12:00,
2013-10-23 23:22:00,35.0,29.0,30.03,WNW,282,0.0,0.0,78,0.00,,,0.00,,2013-10-24 03:22:00,
2013-10-23 23:55:00,35.0,29.0,30.03,ESE,117,0.0,0.0,79,0.00,,,0.00,,2013-10-24 03:55:00,